Visibility
15.0 15.0 15.0 15.0 15.0 15.0 15.0 0.1 0.0 7.4 5.0 15.0 15.0 11.7 3.7 3.5 15.0 15.0 15.0 15.0 15.0 13.2 12.8 10.3 9.1 12.8 7.1 10.7 15.0 15.0 14.8 12.2 10.0 12.7 6.7 10.7 15.0 12.5 15.0 15.0 15.0 15.0 15.0 15.0
15.0 15.0 15.0 15.0 15.0 15.0 15.0 15.0 0.2 8.1 0.0 15.0 15.0 15.0 10.2 3.3 2.7 14.9 13.9 15.0 14.9 15.0 15.0 15.0 15.0 15.0 15.0 15.0 15.0 15.0 14.2 15.0 15.0 15.0 15.0 15.0 8.4 14.2 12.9 15.0 8.8 15.0 13.7 14.9
15.0 15.0 15.0 15.0 15.0 15.0 15.0 15.0 15.0 0.1 4.7 15.0 9.3 14.7 11.7 4.5 2.8 5.5 13.0 15.0 6.5 15.0 15.0 15.0 15.0 15.0 15.0 15.0 15.0 15.0 15.0 15.0 15.0 15.0 15.0 10.5 13.2 15.0 15.0 13.8 15.0 15.0 15.0 15.0
15.0 15.0 15.0 15.0 15.0 15.0 15.0 15.0 15.0 15.0 15.0 7.7 12.5 9.5 7.0 3.4 3.4 3.5 6.9 5.5 6.1 15.0 15.0 15.0 15.0 15.0 15.0 15.0 15.0 15.0 15.0 15.0 15.0 15.0 15.0 15.0 15.0 10.5 15.0 14.7 13.7 15.0 15.0 15.0
15.0 15.0 15.0 15.0 15.0 15.0 15.0 15.0 15.0 15.0 15.0 4.3 15.0 13.5 6.8 6.7 5.8 5.4 5.1 5.3 14.7 14.7 15.0 15.0 15.0 15.0 15.0 15.0 15.0 15.0 15.0 15.0 15.0 15.0 15.0 15.0 15.0 15.0 15.0 15.0 9.9 15.0 14.5 12.2
11.8 15.0 15.0 15.0 15.0 15.0 15.0 15.0 15.0 15.0 15.0 14.5 8.5 6.9 2.1 15.0 13.5 4.6 6.6 15.0 14.6 15.0 15.0 15.0 15.0 15.0 15.0 15.0 15.0 15.0 15.0 15.0 15.0 15.0 15.0 15.0 15.0 15.0 15.0 15.0 14.1 13.7 8.9 8.3
14.8 8.8 15.0 15.0 15.0 15.0 15.0 14.1 15.0 13.6 12.0 9.4 13.0 13.9 14.8 15.0 7.8 4.9 15.0 15.0 15.0 15.0 15.0 15.0 15.0 15.0 15.0 15.0 15.0 15.0 15.0 15.0 15.0 15.0 15.0 15.0 15.0 15.0 15.0 15.0 1.9 0.1 0.6 5.1
6.8 1.4 2.5 15.0 15.0 15.0 15.0 15.0 15.0 11.4 15.0 12.4 15.0 15.0 15.0 15.0 15.0 15.0 15.0 15.0 15.0 15.0 15.0 15.0 15.0 15.0 15.0 15.0 15.0 15.0 15.0 15.0 15.0 15.0 15.0 15.0 15.0 15.0 15.0 15.0 15.0 15.0 15.0 15.0
1.5 15.0 15.0 15.0 13.6 15.0 15.0 15.0 15.0 14.8 13.4 14.4 12.7 14.0 15.0 15.0 15.0 15.0 15.0 15.0 15.0 15.0 15.0 15.0 15.0 15.0 15.0 15.0 15.0 15.0 15.0 15.0 15.0 15.0 15.0 15.0 15.0 15.0 15.0 15.0 15.0 15.0 15.0 15.0
0.0 4.2 0.8 15.0 15.0 15.0 15.0 15.0 15.0 15.0 15.0 15.0 13.1 14.5 8.2 8.1 15.0 2.8 14.1 15.0 15.0 15.0 15.0 14.7 15.0 15.0 15.0 15.0 15.0 15.0 15.0 15.0 15.0 15.0 15.0 15.0 15.0 14.9 6.6 4.7 14.8 14.9 12.0 12.5
0.0 0.0 0.0 0.0 0.2 13.7 15.0 15.0 15.0 15.0 15.0 15.0 15.0 4.4 9.0 9.6 15.0 15.0 15.0 15.0 15.0 15.0 11.2 3.8 10.5 9.0 13.7 15.0 15.0 15.0 15.0 15.0 15.0 15.0 13.5 13.5 0.7 0.4 0.5 0.1 0.6 2.8 4.1 7.2
0.1 0.0 0.0 0.0 0.0 0.1 9.4 3.9 8.5 12.0 15.0 15.0 15.0 15.0 15.0 14.9 15.0 15.0 13.6 15.0 15.0 15.0 13.3 1.4 2.4 1.6 1.9 4.3 15.0 15.0 15.0 12.9 7.1 13.8 15.0 12.2 14.5 1.0 10.0 5.1 5.9 12.2 13.4 4.3
0.0 0.0 0.0 0.0 0.0 3.9 11.1 14.6 14.6 14.8 14.7 15.0 15.0 15.0 15.0 10.7 15.0 15.0 15.0 15.0 3.3 1.1 1.8 2.2 1.6 1.0 0.7 1.4 11.0 2.5 1.5 4.7 7.6 5.8 5.5 8.9 11.6 5.3 1.8 9.9 15.0 3.7 1.7 2.6
0.7 2.4 0.3 8.0 6.6 15.0 15.0 15.0 15.0 15.0 15.0 15.0 15.0 14.6 12.3 3.4 8.0 5.0 1.2 0.5 0.9 1.8 1.4 1.1 2.0 0.5 1.0 7.5 11.3 3.2 3.1 4.6 2.3 2.3 3.6 6.4 5.3 4.7 6.5 3.9 2.2 0.9 1.2 0.8
15.0 15.0 15.0 15.0 15.0 15.0 15.0 15.0 15.0 15.0 15.0 15.0 15.0 13.9 15.0 3.4 1.4 0.4 0.6 9.9 12.8 11.8 2.9 3.4 2.8 0.3 1.6 12.8 5.7 3.1 3.7 3.0 4.4 5.4 5.9 10.8 13.9 10.0 8.1 6.6 3.8 3.8 14.2 12.1
15.0 15.0 15.0 15.0 15.0 15.0 15.0 15.0 15.0 3.4 15.0 9.7 8.6 4.6 1.4 0.9 0.4 0.4 0.8 3.5 4.9 0.6 0.5 1.1 1.3 0.3 5.3 12.1 10.6 5.1 4.5 12.8 5.6 5.5 8.3 8.7 8.0 7.1 7.1 5.4 3.8 2.6 2.1 0.6
15.0 14.9 0.7 14.5 15.0 15.0 6.4 9.7 5.0 1.5 3.9 3.7 0.7 0.5 0.7 0.9 1.3 1.2 0.8 2.0 3.3 1.1 0.5 0.4 0.2 2.1 15.0 15.0 4.3 2.9 3.4 5.0 7.5 8.5 3.8 4.4 4.0 2.5 4.1 4.3 2.6 1.3 0.6 1.5
12.9 11.9 1.5 4.6 15.0 15.0 15.0 7.7 3.3 2.2 0.8 0.4 0.6 1.2 1.7 1.2 0.3 0.2 0.4 6.8 15.0 15.0 2.4 1.5 7.5 15.0 12.9 15.0 15.0 15.0 5.4 4.3 5.7 3.2 5.9 5.4 5.3 5.6 5.2 6.0 6.3 5.8 6.4 13.1
15.0 15.0 9.0 7.5 13.4 15.0 13.9 4.4 2.8 3.1 1.9 1.3 1.6 0.5 0.3 0.3 0.4 1.1 12.3 15.0 11.9 9.4 1.2 4.8 15.0 15.0 11.8 13.1 15.0 13.8 15.0 14.7 9.0 6.1 11.1 8.3 4.8 5.2 5.0 5.3 4.9 5.5 9.3 8.0
12.4 15.0 11.8 1.3 3.3 5.7 1.3 1.1 2.4 1.6 0.6 0.9 0.6 0.5 0.5 0.6 1.7 14.1 15.0 1.5 0.5 0.3 2.5 14.6 15.0 15.0 15.0 15.0 11.3 15.0 14.3 8.6 13.7 7.1 7.0 7.0 5.3 3.8 4.2 6.2 5.5 4.3 4.6 12.0
1.8 2.2 2.0 2.5 0.8 0.8 0.7 0.8 1.5 0.7 0.3 0.3 0.4 0.4 0.5 0.7 15.0 15.0 15.0 4.8 1.4 14.1 15.0 15.0 15.0 15.0 15.0 15.0 15.0 15.0 15.0 15.0 11.0 7.6 14.0 7.6 15.0 8.2 4.9 4.5 4.1 4.1 3.8 13.9
4.0 4.0 3.4 4.1 6.4 2.1 3.3 4.6 7.4 2.8 2.3 2.4 3.0 9.4 15.0 15.0 15.0 15.0 8.9 4.0 10.0 15.0 15.0 15.0 15.0 11.4 14.8 13.6 14.0 15.0 15.0 15.0 14.6 14.6 15.0 15.0 12.2 8.4 3.7 4.4 4.4 3.9 2.4 3.6
4.1 4.1 4.1 7.2 4.5 1.3 1.7 3.7 3.2 6.3 3.9 4.1 10.0 9.7 11.6 11.8 15.0 11.0 14.2 15.0 15.0 15.0 15.0 13.8 11.6 15.0 15.0 15.0 15.0 15.0 15.0 9.0 8.2 11.1 12.4 8.1 6.5 8.1 4.0 3.9 2.8 3.8 4.1 13.0
4.1 4.6 4.3 4.1 5.4 5.7 1.9 0.8 5.5 15.0 4.6 10.1 15.0 15.0 15.0 8.6 4.0 15.0 15.0 15.0 14.6 5.6 5.6 5.7 14.7 4.5 15.0 15.0 15.0 15.0 10.1 4.1 3.7 3.7 6.9 5.4 8.9 8.1 4.1 3.7 3.7 2.3 2.2 3.8
4.6 4.2 3.8 1.0 0.3 0.4 0.8 1.2 1.7 14.6 15.0 15.0 15.0 15.0 15.0 15.0 15.0 8.3 4.2 4.4 15.0 15.0 15.0 15.0 4.8 5.5 8.6 13.1 15.0 15.0 15.0 4.7 2.1 3.2 4.0 4.1 4.1 4.1 3.3 3.4 3.8 4.0 4.1 4.1
1.2 0.7 0.4 0.3 0.2 0.2 0.7 1.3 3.7 3.5 14.4 9.0 4.1 4.8 8.2 6.1 4.1 4.1 4.3 4.0 7.9 10.1 15.0 15.0 15.0 5.2 7.7 8.4 4.0 9.6 12.6 12.8 4.1 3.7 3.4 4.1 4.1 4.0 4.0 4.2 4.1 4.0 2.7 2.6
0.3 0.5 0.5 0.5 0.8 2.9 2.6 0.5 0.2 0.3 2.4 9.1 7.4 8.4 11.9 12.7 4.8 4.3 5.0 4.4 2.6 2.1 3.2 2.5 1.4 2.8 3.1 5.4 3.0 2.8 2.7 2.7 4.0 5.8 3.0 2.9 2.5 3.9 4.1 4.7 5.9 4.1 2.9 1.9